Vertical_Velocity
0 2 1 -1 3 1 4 3 3 2 5 3 -4 -6 -5 -2 1 2 0 0 2 2 3 2 -0 0 3 5 1 -4 -3 -2
2 1 1 0 0 0 -2 1 1 2 2 -1 1 4 2 -1 -2 -4 -2 0 -1 -1 0 2 3 1 -2 -0 2 0 -0 -4
1 3 1 2 2 3 -0 0 1 3 2 1 2 2 1 1 -2 0 -1 -5 -3 0 1 1 -2 -3 2 3 4 5 7 5
1 2 2 1 2 2 0 1 4 1 -0 1 0 -2 -0 1 3 2 0 3 3 -2 -3 3 1 6 3 -1 -3 2 -2 4
-1 -1 -2 -1 -1 -2 -0 0 1 0 -1 0 0 -0 0 -1 -1 -2 -0 0 2 1 2 0 -1 1 -1 4 4 -1 1 2
-1 -2 -0 1 -0 -0 -1 -3 -0 1 1 2 1 -3 -0 -2 -1 -1 0 -1 -0 4 -0 2 2 2 2 -1 -3 3 1 2
-1 -1 -2 -1 -2 -0 1 0 -0 -2 -1 -0 0 0 -2 1 0 1 0 2 2 1 1 1 1 1 0 -4 -5 -3 -2 -2
-4 -3 -2 -2 -1 -0 -0 -1 -1 -1 -0 1 -0 1 1 -0 -1 2 0 -1 -1 2 2 0 1 0 0 1 3 -2 -2 -3
-1 -0 -2 -1 -1 0 -0 -0 -0 -2 1 -2 -0 1 1 1 -2 -1 -0 -1 -2 -1 -1 -0 0 3 3 -0 1 -0 1 -1
-1 -1 -0 0 -2 2 0 2 2 1 -2 -1 -2 -2 -1 -2 -3 -5 -3 -2 -1 -2 -0 0 -2 -0 1 5 1 -2 -3 -1
-1 -2 -0 -1 -2 1 1 2 2 0 -1 -3 -2 -2 -1 -1 -1 -1 -2 -3 -3 -3 -4 -4 -1 0 0 -2 -0 -0 -1 -4
-1 -1 -3 -2 0 1 -0 0 1 1 0 -1 -1 -1 -1 -1 -0 1 2 1 1 -2 -2 -2 -5 -2 1 3 1 1 2 -3
-2 -0 -1 -3 -2 -3 -1 -1 -0 -1 -2 -2 -2 -1 -1 -1 -1 -3 -2 -0 -2 -2 -2 -2 -2 -6 -4 2 -1 2 4 3
-1 -1 0 -2 -2 -3 -1 -1 -0 2 2 -1 -1 -3 -2 -2 -3 -3 -3 -3 -2 -3 -3 -3 -3 -6 -6 -9 1 2 4 -3
-3 -1 0 -1 -0 -0 -0 -0 -1 -2 -1 -1 -3 -1 -1 -2 -3 -3 -1 -2 -3 1 1 -7 -5 0 -9 -2 -8 -5 7 -2
-1 -1 -0 0 -2 -2 -1 -0 -2 -4 -4 -2 -5 -6 -6 -5 -4 -5 -4 -3 -1 -1 -1 -0 -3 -2 2 -2 0 -4 -3 7
-0 -2 -2 -2 -3 -2 -2 -2 -1 -2 -6 -5 -3 -4 -5 -5 -5 -4 -4 -4 -4 -0 -8 4 -1 -1 -0 2 2 -0 -1 -9
-0 0 -2 -3 -1 0 -1 -2 -2 -3 -6 -5 -4 -3 -0 -2 -1 -2 -2 -2 -2 -5 -3 2 8 -3 -2 -2 -1 0 6 -3
0 1 -1 -1 -2 -2 -1 -1 -1 -3 -6 -4 -2 -1 -3 -4 -3 -2 0 -1 -1 -3 -4 -3 6 4 -2 -1 1 2 1 -1
2 1 -0 0 0 -1 -1 -1 -2 -3 -5 -4 -2 -3 -5 -1 -1 -4 -1 -3 1 -4 -3 -4 3 3 -1 -0 -1 -1 0 -1
Height
3163 3163 3164 3164 3164 3165 3165 3165 3165 3165 3165 3164 3163 3162 3162 3162 3162 3162 3162 3162 3162 3163 3163 3163 3162 3162 3162 3161 3160 3160 3161 3161
3162 3162 3162 3162 3162 3162 3162 3162 3162 3162 3162 3161 3161 3161 3159 3159 3158 3158 3158 3157 3157 3157 3157 3158 3158 3159 3158 3158 3158 3158 3158 3160
3160 3159 3159 3159 3159 3158 3158 3158 3158 3158 3158 3158 3158 3158 3158 3157 3156 3155 3155 3154 3153 3152 3152 3152 3153 3153 3153 3155 3153 3155 3155 3155
3156 3156 3155 3154 3154 3153 3153 3154 3154 3154 3154 3154 3154 3153 3153 3153 3153 3152 3152 3151 3151 3149 3147 3147 3148 3147 3147 3148 3147 3148 3150 3151
3150 3150 3149 3149 3148 3148 3148 3148 3149 3150 3149 3149 3148 3148 3148 3148 3148 3147 3147 3146 3145 3144 3144 3144 3143 3142 3143 3141 3142 3144 3145 3146
3145 3144 3143 3142 3142 3141 3141 3142 3143 3143 3143 3144 3143 3142 3141 3141 3141 3141 3140 3140 3139 3139 3139 3139 3138 3137 3138 3138 3137 3138 3137 3138
3140 3139 3137 3137 3136 3136 3135 3135 3135 3135 3136 3136 3136 3136 3135 3135 3134 3134 3133 3133 3133 3132 3132 3132 3131 3132 3132 3132 3132 3131 3132 3132
3135 3133 3131 3131 3130 3129 3129 3129 3129 3129 3128 3128 3128 3128 3128 3128 3127 3127 3126 3126 3125 3124 3124 3123 3122 3123 3123 3124 3124 3124 3123 3124
3131 3129 3126 3125 3123 3123 3123 3123 3123 3123 3122 3122 3121 3121 3120 3120 3120 3119 3118 3117 3117 3117 3116 3115 3114 3113 3113 3114 3114 3115 3116 3116
3126 3124 3122 3120 3118 3118 3118 3117 3117 3116 3116 3116 3115 3114 3114 3113 3113 3112 3111 3110 3109 3108 3107 3106 3105 3104 3104 3104 3105 3106 3107 3106
3120 3118 3117 3116 3114 3113 3113 3112 3111 3110 3110 3109 3109 3108 3107 3107 3107 3105 3104 3103 3102 3101 3100 3098 3097 3096 3095 3095 3096 3096 3097 3097
3117 3115 3112 3110 3109 3108 3108 3106 3105 3105 3104 3103 3102 3101 3100 3099 3099 3098 3097 3095 3093 3091 3090 3088 3086 3085 3085 3086 3086 3086 3088 3088
3113 3111 3109 3107 3106 3105 3104 3103 3102 3101 3100 3099 3097 3096 3094 3093 3092 3090 3089 3087 3085 3083 3080 3079 3077 3075 3075 3075 3075 3075 3077 3079
3108 3106 3105 3103 3101 3100 3100 3099 3097 3096 3096 3095 3093 3092 3091 3089 3087 3085 3082 3080 3078 3075 3073 3071 3069 3065 3064 3064 3065 3067 3067 3068
3103 3102 3101 3099 3097 3096 3095 3093 3092 3091 3091 3091 3089 3087 3085 3084 3081 3079 3076 3074 3071 3067 3065 3063 3060 3059 3056 3056 3055 3056 3058 3059
3099 3097 3095 3094 3093 3092 3091 3090 3088 3086 3085 3085 3085 3084 3082 3079 3076 3074 3070 3066 3063 3060 3057 3054 3051 3050 3049 3046 3047 3046 3047 3050
3093 3092 3091 3090 3089 3089 3087 3086 3084 3082 3082 3081 3080 3078 3075 3073 3070 3066 3062 3059 3055 3053 3050 3046 3042 3040 3038 3038 3037 3035 3037 3036
3087 3087 3087 3086 3085 3085 3084 3083 3081 3080 3079 3077 3075 3072 3069 3066 3062 3058 3054 3051 3047 3044 3040 3038 3034 3030 3029 3028 3027 3026 3026 3024
3082 3082 3081 3081 3081 3081 3081 3080 3078 3076 3074 3073 3070 3067 3064 3060 3056 3053 3049 3044 3040 3035 3031 3029 3027 3021 3020 3019 3018 3016 3014 3014
3075 3076 3076 3076 3076 3076 3076 3075 3073 3071 3068 3067 3065 3062 3058 3054 3050 3046 3042 3038 3032 3027 3024 3023 3020 3014 3013 3011 3009 3005 3002 3001